{"data":{"norad_id":54679,"epoch":"2026-05-25T00:07:40.981152Z","epoch_age_seconds":67821,"freshness":"FRESH","line1":"1 54679U 22166AP  26145.00533543  .00000029  00000+0  38550-4 0  9994","line2":"2 54679  87.9249 248.5939 0002121  93.0308 267.1069 13.21819482168354","mean_motion":13.21819482,"eccentricity":0.0002121,"inclination_deg":87.9249,"raan_deg":248.5939,"arg_perigee_deg":93.0308,"mean_anomaly_deg":267.1069,"bstar":3.855e-5,"rev_number":16835,"period_min":108.94074566227,"perigee_km":1176.1755978743,"apogee_km":1179.3808171053,"semimajor_km":7555.9152074898,"source":"CELESTRAK","updated_at":"2026-05-25T13:38:22.638306Z"}}